Regional Weather Roundup
Issued by NWS Goodland, KS

Home | Current Version | Previous Version | Graphics & Text | Print | Product List | Glossary On
Versions: 1 2 3 4 5 6 7 8 9 10 11 12 13 14 15 16 17 18 19 20 21 22 23 24 25 26 27 28 29 30 31 32 33 34 35 36 37 38 39 40 41 42 43 44 45 46 47 48 49 50
000
ASUS43 KGLD 062208
RWRGLD

GOODLAND FORECAST AREA HOURLY WEATHER ROUNDUP
NATIONAL WEATHER SERVICE GOODLAND KS
300 PM MST FRI MAR 06 2015

...OFFICIAL OBSERVATIONS...

CITY           SKY/WX    TMP DP  RH WIND       PRES   REMARKS
GOODLAND KS    SUNNY     60  16  18 W13G22    30.22S
HILL CITY KS   SUNNY     66  14  13 NW13      30.19F
IMPERIAL NEB     N/A     61  14  16 W13       30.17F
MCCOOK NEB     SUNNY     66  15  14 W14G20    30.16F
AKRON CO       SUNNY     55  16  21 W13       30.22F
BURLINGTON CO  SUNNY     56  19  23 W14G20    30.24S
LIMON CO       SUNNY     42  27  55 N5        30.26S
$$

...UNOFFICIAL OBSERVATIONS...

CITY           SKY/WX    TMP DP  RH WIND       PRES   REMARKS
COLBY KS       SUNNY     63  25  23 W16       30.20F
GOVE KS          N/A     64  32  30 MISG        N/A
LENORA KS        N/A     61  32  33 S14         N/A
NORTON KS      SUNNY     63   9  12 W14       30.17S
SHARON SPRINGS   N/A     60  27  28 CALM        N/A
YUMA CO          N/A     58  15  18 N13G22      N/A
$$


USA.gov is the U.S. government's official web portal to all federal, state and local government web resources and services.